Flagstaff, AZ

9:47 PM MST on February 25, 2017 (GMT -0700)
Flagstaff Pulliam

Weather History for KFLG - June, 2013

Change the Weather History Date:

Sunday, June 2, 2013

  Actual Average Record
Temperature  
Mean Temperature 62 °F 56 °F  
Max Temperature 82 °F 74 °F 86 °F (1977)
Min Temperature 42 °F 38 °F 22 °F (1951)
Degree Days  
Heating Degree Days 3 9  
Month to date heating degree days 3 19  
Since 1 July heating degree days 6664 6792  
Cooling Degree Days 0 0  
Month to date cooling degree days 0 0  
Year to date cooling degree days 0 0  
Growing Degree Days 12 (Base 50)    
Moisture  
Dew Point 23 °F    
Average Humidity 24    
Maximum Humidity 35    
Minimum Humidity 12    
Precipitation  
Precipitation 0.00 in 0.02 in 0.91 in (1999)
Month to date precipitation 0.00 0.03  
Year to date precipitation 5.23 8.14  
Snow  
Snow 0.00 in 0.00 in T in (1992)
Month to date snowfall 0.0 0.0  
Since 1 July snowfall 69.7 101.7  
Snow Depth 0.00 in    
Sea Level Pressure  
Sea Level Pressure 29.85 in    
Wind  
Wind Speed 9 mph (SW)    
Max Wind Speed 30 mph    
Max Gust Speed 38 mph    
Visibility 10 miles    
Events      
T = Trace of Precipitation, MM = Missing Value Source: NWS Daily Summary

Daily Weather History Graph

Daily Weather History Graph

Search for Another Location

Airport or City:

Trip Planner

Search our weather history database for the weather conditions in past years. The results will help you decide how hot, cold, wet, or windy it might be!

Date:

Astronomy

Jun. 02, 2013 Rise Set
Actual Time 5:13 AM MST 7:36 PM MST
Civil Twilight 4:43 AM MST 8:05 PM MST
Nautical Twilight 4:07 AM MST 8:42 PM MST
Astronomical Twilight 3:28 AM MST 9:21 PM MST
Moon 1:30 AM MST (6/2) 2:21 PM MST (6/2)
Length of Visible Light 15h 22m
Length of Day
14h 23m
Waning Crescent, 30% of the Moon is Illuminated
Jun 2
Waning Crescent
Jun 8
New
Jun 16
First Quarter
Jun 23
Full
Jun 29
Last Quarter

Hourly Weather History & Observations

Time (MST) Temp. Dew Point Humidity Pressure Visibility Wind Dir Wind Speed Gust Speed Precip Events Conditions
12:57 AM 46.9 °F 12.9 °F 25% 29.91 in 10.0 mi Calm Calm - N/A   Clear
1:57 AM 46.9 °F 14.0 °F 27% 29.89 in 10.0 mi Calm Calm - N/A   Clear
2:57 AM 44.1 °F 14.0 °F 30% 29.90 in 10.0 mi Calm Calm - N/A   Clear
3:57 AM 44.1 °F 15.1 °F 31% 29.88 in 10.0 mi Calm Calm - N/A   Clear
4:57 AM 43.0 °F 15.1 °F 32% 29.88 in 10.0 mi Calm Calm - N/A   Clear
5:57 AM 43.0 °F 16.0 °F 34% 29.90 in 10.0 mi Calm Calm - N/A   Clear
6:28 AM 44.6 °F 19.4 °F 37% 30.17 in 10.0 mi Calm Calm - N/A   Partly Cloudy
6:57 AM 52.0 °F 21.9 °F 31% 29.88 in 10.0 mi Calm Calm - N/A   Clear
7:57 AM 68.0 °F 17.1 °F 14% 29.83 in 10.0 mi Calm Calm - N/A   Clear
8:57 AM 75.0 °F 30.0 °F 19% 29.83 in 10.0 mi SW 9.2 mph - N/A   Clear
9:57 AM 75.9 °F 30.9 °F 19% 29.84 in 10.0 mi SSW 15.0 mph 26.5 mph N/A   Clear
10:57 AM 78.1 °F 30.9 °F 18% 29.85 in 10.0 mi SSW 24.2 mph 34.5 mph N/A   Clear
11:57 AM 79.0 °F 28.9 °F 16% 29.84 in 10.0 mi SW 18.4 mph 28.8 mph N/A   Clear
12:57 PM 79.0 °F 28.0 °F 15% 29.84 in 10.0 mi SW 17.3 mph 28.8 mph N/A   Partly Cloudy
1:57 PM 81.0 °F 25.0 °F 13% 29.81 in 10.0 mi SW 23.0 mph 38.0 mph N/A   Clear
2:57 PM 81.0 °F 24.1 °F 12% 29.81 in 10.0 mi WSW 18.4 mph 31.1 mph N/A   Clear
3:57 PM 81.0 °F 23.0 °F 12% 29.79 in 10.0 mi SSW 23.0 mph 38.0 mph N/A   Clear
4:57 PM 79.0 °F 24.1 °F 13% 29.79 in 10.0 mi SW 25.3 mph 35.7 mph N/A   Partly Cloudy
5:57 PM 77.0 °F 26.1 °F 15% 29.80 in 10.0 mi SSW 16.1 mph 24.2 mph N/A   Clear
6:57 PM 73.9 °F 26.1 °F 17% 29.79 in 10.0 mi SSW 15.0 mph 24.2 mph N/A   Clear
7:57 PM 69.1 °F 27.0 °F 21% 29.75 in 10.0 mi SW 8.1 mph - N/A   Clear
8:57 PM 63.0 °F 27.0 °F 26% 29.77 in 10.0 mi Calm Calm - N/A   Clear
9:57 PM 57.0 °F 27.0 °F 32% 29.80 in 10.0 mi Calm Calm - N/A   Clear
10:57 PM 54.0 °F 27.0 °F 35% 29.80 in 10.0 mi Calm Calm - N/A   Clear
11:57 PM 51.1 °F 27.0 °F 39% 29.79 in 10.0 mi Calm Calm - N/A   Clear